TimeMST,TemperatureF,Dew PointF,Humidity,Sea Level PressureIn,VisibilityMPH,Wind Direction,Wind SpeedMPH,Gust SpeedMPH,PrecipitationIn,Events,Conditions,WindDirDegrees,DateUTC
12:35 AM,8.6,-2.2,62,30.62,10.0,Calm,Calm,-,N/A,,Clear,0,2011-11-27 07:35:00
1:15 AM,10.4,-0.4,62,30.63,10.0,Calm,Calm,-,N/A,,Clear,0,2011-11-27 08:15:00
1:35 AM,10.4,1.4,67,30.63,10.0,Calm,Calm,-,N/A,,Clear,0,2011-11-27 08:35:00
1:55 AM,8.6,-0.4,67,30.63,10.0,Calm,Calm,-,N/A,,Clear,0,2011-11-27 08:55:00
2:15 AM,10.4,3.2,73,30.64,10.0,Calm,Calm,-,N/A,,Clear,0,2011-11-27 09:15:00
2:35 AM,8.6,-0.4,67,30.64,10.0,Calm,Calm,-,N/A,,Clear,0,2011-11-27 09:35:00
2:55 AM,8.6,1.4,73,30.64,10.0,Calm,Calm,-,N/A,,Clear,0,2011-11-27 09:55:00
3:35 AM,6.8,-0.4,72,30.64,10.0,Calm,Calm,-,N/A,,Clear,0,2011-11-27 10:35:00
3:55 AM,8.6,1.4,73,30.64,10.0,Calm,Calm,-,N/A,,Clear,0,2011-11-27 10:55:00
4:35 AM,8.6,1.4,73,30.64,10.0,Calm,Calm,-,N/A,,Clear,0,2011-11-27 11:35:00
4:55 AM,5.0,-5.8,61,30.64,10.0,Calm,Calm,-,N/A,,Clear,0,2011-11-27 11:55:00
5:15 AM,5.0,-0.4,78,30.64,10.0,Calm,Calm,-,N/A,,Clear,0,2011-11-27 12:15:00
5:35 AM,6.8,1.4,79,30.64,10.0,Calm,Calm,-,N/A,,Clear,0,2011-11-27 12:35:00
6:15 AM,6.8,1.4,79,30.65,10.0,Calm,Calm,-,N/A,,Clear,0,2011-11-27 13:15:00
7:35 AM,5.0,-0.4,78,30.67,10.0,Calm,Calm,-,N/A,,Clear,0,2011-11-27 14:35:00
8:16 AM,10.4,1.4,67,30.67,10.0,ENE,3.5,-,N/A,,Clear,60,2011-11-27 15:16:00
9:15 AM,15.8,3.2,58,30.67,10.0,Calm,Calm,-,N/A,,Clear,0,2011-11-27 16:15:00
10:15 AM,19.4,3.2,49,30.66,10.0,Calm,Calm,-,N/A,,Clear,0,2011-11-27 17:15:00
10:55 AM,24.8,3.2,40,30.64,10.0,WNW,3.5,-,N/A,,Clear,290,2011-11-27 17:55:00
11:15 AM,26.6,3.2,37,30.63,10.0,Calm,Calm,-,N/A,,Clear,0,2011-11-27 18:15:00
11:55 AM,28.4,3.2,34,30.59,10.0,East,3.5,-,N/A,,Clear,90,2011-11-27 18:55:00
12:15 PM,30.2,5.0,34,30.57,10.0,Calm,Calm,-,N/A,,Clear,0,2011-11-27 19:15:00
12:35 PM,32.0,5.0,32,30.56,10.0,Calm,Calm,-,N/A,,Clear,0,2011-11-27 19:35:00
12:55 PM,33.8,3.2,28,30.55,10.0,NW,3.5,-,N/A,,Clear,310,2011-11-27 19:55:00
1:16 PM,35.6,6.8,30,30.54,10.0,NNW,3.5,-,N/A,,Clear,340,2011-11-27 20:16:00
1:35 PM,35.6,6.8,30,30.53,10.0,Calm,Calm,-,N/A,,Clear,0,2011-11-27 20:35:00
2:15 PM,39.2,6.8,26,30.51,10.0,Calm,Calm,-,N/A,,Clear,0,2011-11-27 21:15:00
2:55 PM,39.2,8.6,28,30.51,10.0,Calm,Calm,-,N/A,,Clear,0,2011-11-27 21:55:00
3:15 PM,41.0,8.6,26,30.51,10.0,Calm,Calm,-,N/A,,Clear,0,2011-11-27 22:15:00
3:35 PM,41.0,8.6,26,30.50,10.0,NNE,3.5,-,N/A,,Clear,20,2011-11-27 22:35:00
3:55 PM,42.8,6.8,23,30.50,10.0,Calm,Calm,-,N/A,,Clear,0,2011-11-27 22:55:00
4:35 PM,39.2,6.8,26,30.49,10.0,Calm,Calm,-,N/A,,Clear,0,2011-11-27 23:35:00
5:35 PM,32.0,6.8,35,30.49,10.0,North,6.9,-,N/A,,Clear,350,2011-11-28 00:35:00
5:56 PM,30.2,6.8,37,30.50,10.0,North,3.5,-,N/A,,Clear,10,2011-11-28 00:56:00
6:15 PM,28.4,5.0,37,30.50,10.0,North,3.5,-,N/A,,Clear,10,2011-11-28 01:15:00
6:35 PM,26.6,6.8,43,30.50,10.0,ENE,3.5,-,N/A,,Clear,60,2011-11-28 01:35:00
6:55 PM,26.6,6.8,43,30.50,10.0,Calm,Calm,-,N/A,,Clear,0,2011-11-28 01:55:00
7:55 PM,21.2,6.8,54,30.51,10.0,Calm,Calm,-,N/A,,Clear,0,2011-11-28 02:55:00
8:15 PM,21.2,6.8,54,30.52,10.0,Calm,Calm,-,N/A,,Clear,0,2011-11-28 03:15:00
8:35 PM,21.2,8.6,58,30.52,10.0,Calm,Calm,-,N/A,,Clear,0,2011-11-28 03:35:00
8:55 PM,21.2,6.8,54,30.53,10.0,Calm,Calm,-,N/A,,Clear,0,2011-11-28 03:55:00
9:15 PM,21.2,8.6,58,30.53,10.0,Calm,Calm,-,N/A,,Clear,0,2011-11-28 04:15:00
9:55 PM,17.6,8.6,68,30.53,10.0,Calm,Calm,-,N/A,,Clear,0,2011-11-28 04:55:00
10:15 PM,15.8,6.8,68,30.53,10.0,Calm,Calm,-,N/A,,Clear,0,2011-11-28 05:15:00
10:35 PM,15.8,6.8,68,30.53,10.0,Calm,Calm,-,N/A,,Clear,0,2011-11-28 05:35:00
11:15 PM,17.6,6.8,63,30.53,7.0,Calm,Calm,-,N/A,,Clear,0,2011-11-28 06:15:00
11:35 PM,15.8,6.8,68,30.54,10.0,Calm,Calm,-,N/A,,Clear,0,2011-11-28 06:35:00
11:56 PM,12.2,3.2,67,30.53,10.0,Calm,Calm,-,N/A,,Clear,0,2011-11-28 06:56:00